Location: Milo
(50.5667°N, 112.8833°W)
Time: 03:00:10
(UTC+00:00)

ISS - Pass Details

Date: 06 December 2021
Orbit: 413 x 422 km, 51.6° (Epoch: 22 January)

Event Time Altitude Azimuth Distance (km) Brightness Sun altitude
Rises 01:23:15 0° 286° (WNW) 2,386 1.1 -17.3°
Reaches altitude 10° 01:25:31 10° 275° (W) 1,515 0.2 -17.7°
Maximum altitude 01:28:31 29° 213° (SSW) 804 -1.9 -18.1°
Enters shadow 01:30:58 13° 156° (SSE) 1,320 -1.4 -18.5°
